ONEWEB-0125 (47271 NORAD) Tracking and Keplerian Element Data
This shows tracking and keplerian element data for the satellite.
Feedback or suggestion? Click here.
Element | Value |
Catalog | 47271 |
Name | ONEWEB-0125 |
Epoch Orbit | 507 |
Epoch Day | 20.75130574 |
Epoch Year | 2021 |
RAAN | 28.0343 |
Inclination | 87.4002 |
Eccentricity | 0.0008886 |
Argument of Perigee | 133.6858 |
Mean Anonmoly | 226.5114 |
Mean Motion | 15.0039613 |
Decay Rate | -0.00424747 |
L1 | 1 47271U 20100P 21020.75130574 -.00424747 00000-0 -35904-1 0 9993 |
L2 | 2 47271 87.4002 28.0343 0008886 133.6858 226.5114 15.00396130 5079 |
Live tracking and technical data element details for ONEWEB-0125 (NORAD 47271). ONEWEB-0125 can be tracked NOW for your location showing map with azimuth and elevation plus other details from your city location.
Track the satellite on the map from your city or location and see movement details for azimuth, elevation, latitude, longitude, range, height, and movement on the map or in text.
IsCatalogInMostPopularTable: catalog: 47271, numindb: 14
Update: records affected: 1
GetName: 47271 ONEWEB-0125
Hit Count: updated at: Sat, 23 Jan 2021 16:33:00 GMT